Simultaneous Nadir Overpasses (SNOs) Predictions

Prediction of SNOs between METOP-A and NOAA-19 Satellite Orbit:

Table of predicted SNOs for the next 14.0 days since TLE Epoch: 4/6/2019
Index Date (METOP-A) Time (METOP-A) Lat,Lon (METOP-A) SZA (METOP-A ) Date (NOAA-19) Time (NOAA-19) Lat,Lon (NOAA-19) SZA (NOAA-19 ) Distance(km) Time Diff (sec)
1 04/11/2019 13:19:58 79.53, -8.47 71.35 04/11/2019 13:19:01 79.51, -8.43 71.32 2.11 57
2 04/11/2019 14:10:40 -79.51, 158.70 108.70 04/11/2019 14:09:57 -79.52, 158.75 108.69 1.68 43
3 04/11/2019 15:01:20 79.51, -33.99 71.29 04/11/2019 15:01:02 79.52, -33.96 71.30 0.91 18
4 04/11/2019 15:52:01 -79.52, 133.45 108.71 04/11/2019 15:51:57 -79.50, 133.51 108.73 3.22 4
5 04/11/2019 16:42:42 79.49, -59.50 71.24 04/11/2019 16:43:03 79.52, -59.49 71.27 3.49 21
6 04/11/2019 17:33:23 -79.50, 107.95 108.76 04/11/2019 17:33:58 -79.50, 107.98 108.76 0.71 35
7 04/11/2019 18:24:03 79.50, -84.74 71.23 04/11/2019 18:25:03 79.49, -84.73 71.23 0.81 60




NCC Satellite Simultaneous Nadir Overpasses (SNOs) Prediction Service
